Regional Weather Roundup
Issued by NWS

Home | Current Version | Previous Version | Text Only | Print | Product List | Glossary Off
Versions: 1 2 3 4 5 6 7 8 9 10 11 12 13 14 15 16 17 18 19 20 21 22 23 24 25 26 27 28 29 30 31 32 33 34 35 36 37 38 39 40 41 42 43 44 45 46 47 48 49 50

000
ASUS43 KIND 272309
RWRIN

WEATHER ROUNDUP FOR INDIANA
NATIONAL WEATHER SERVICE INDIANAPOLIS IN
600 PM EST THU NOV 27 2014

NOTE: "FAIR" INDICATES FEW OR NO CLOUDS BELOW 12,000 FEET WITH NO
SIGNIFICANT WEATHER AND/OR OBSTRUCTIONS TO VISIBILITY.

* - STATION DOES NOT REPORT WEATHER SUCH AS PRECIPITATION OR FOG.

+ - STATION NOT QUALITY CONTROLLED BY THE NATIONAL WEATHER SERVICE.
    USE DATA WITH CAUTION...ESPECIALLY DEWPOINT AND RELATIVE
    HUMIDITY OBSERVATIONS.

INZ001>003-010>013-019-020-280000-
NORTHWEST INDIANA

CITY           SKY/WX    TMP DP  RH WIND       PRES   REMARKS
GARY /AIRPORT/ CLOUDY    27  14  59 NW9       30.39R WCI  17
KNOX *+        CLOUDY    24  19  83 W9        30.36R WCI  14
LA PORTE +     LGT SNOW  26  22  82 W6        30.36R WCI  20
MICHIGAN CITY+ FLURRIES  27  18  69 NW9       30.37R WCI  17
MONTICELLO +   CLOUDY    26  17  71 NW13      30.37S WCI  15
RENSSELAER +   CLOUDY    27  21  80 NW8       30.38S WCI  18
VALPARAISO     FLURRIES  23  18  81 W10       30.37S WCI  12

$$

LMZ046-743>745-280000-
SOUTHERN LAKE MICHIGAN

STATION/POSITION TIME  TEMP WIND        PRES
                       AIR  DIR/SP/G
                 (UTC) (F)  (DEG/KT/KT) (MB)
MICHIGAN CITY    2300   26  290/ 17/ 21   N/A

$$

INZ004-005-014>016-021>024-280000-
NORTH CENTRAL INDIANA

CITY           SKY/WX    TMP DP  RH WIND       PRES   REMARKS
GOSHEN         LGT SNOW  26  23  88 W17       30.30S FOG     WCI  13
LOGANSPORT +   CLOUDY    27  19  74 W10G16    30.36S WCI  17
PERU/GRISSOM   FLURRIES  26  25  96 W14       30.35R WCI  14
ROCHESTER +    LGT SNOW  28  27  93 W8        30.35R WCI  20
SOUTH BEND     FLURRIES  27  20  75 NW16      30.33R WCI  15
WARSAW +       MOCLDY    27  21  80 W13       30.32R WCI  16

$$

INZ006>009-017-018-025>027-280000-
NORTHEAST INDIANA

CITY           SKY/WX    TMP DP  RH WIND       PRES   REMARKS
ANGOLA *+      CLOUDY    27  21  80 NW6       30.26R WCI  20
AUBURN +       FLURRIES  30  23  74 W14G20    30.28R WCI  20
FORT WAYNE     FLURRIES  28  23  81 W17       30.31R WCI  16
HUNTINGTON +   FLURRIES  27  23  86 W9        30.32R WCI  17

$$

INZ028-029-035-036-043>045-051>053-280000-
WEST CENTRAL INDIANA

CITY           SKY/WX    TMP DP  RH WIND       PRES   REMARKS
GREENCASTLE +  LGT SNOW  28  21  74 W6        30.39S WCI  22
LAFAYETTE      LGT SNOW  25  21  85 NW7       30.39R FOG     WCI  17
TERRE HAUTE    LGT SNOW  27  23  85 W8        30.42R FOG     WCI  19

$$

INZ030>032-037>040-046>048-054>057-064-065-280000-
CENTRAL INDIANA

CITY           SKY/WX    TMP DP  RH WIND       PRES   REMARKS
CP ATTERBURY + LGT SNOW  30  23  74 NW9       30.39R WCI  22
FRANKFORT +    FLURRIES  27  22  79 W13       30.38S WCI  16
INDIANAPOLIS   FLURRIES  27  19  72 NW13      30.37R WCI  16
-EAGLE CREEK   CLOUDY    27  19  72 NW15      30.37R WCI  15
KOKOMO *+      MOCLDY    27  19  74 W15G22    30.35R WCI  15
MARION +         N/A     26  20  79 NW15      30.34S WCI  14
MT COMFORT *+  MOCLDY    28  14  54 W12       30.36S WCI  18
SHELBYVILLE    LGT SNOW  28  22  78 W10       30.37R WCI  19
ZIONSVILLE +   CLOUDY    27  18  67 NW13G18   30.37R WCI  16

$$

INZ033-034-041-042-049-050-058-059-280000-
EAST CENTRAL INDIANA

CITY           SKY/WX    TMP DP  RH WIND       PRES   REMARKS
MUNCIE         FLURRIES  27  21  78 W16G25    30.33R WCI  15

$$

INZ060-061-067>069-081>083-085>088-280000-
SOUTHWEST INDIANA

CITY           SKY/WX    TMP DP  RH WIND       PRES   REMARKS
EVANSVILLE     CLOUDY    30  22  72 VRB3      30.47S
HUNTINGBURG *+ MOCLDY    28  19  69 W10       30.45S WCI  19
WASHINGTON +   FLURRIES  28  26  89 W8        30.44R WCI  20

$$

INZ062-063-066-070>080-084-089>092-280000-
SOUTH CENTRAL AND SOUTHEAST INDIANA

CITY           SKY/WX    TMP DP  RH WIND       PRES   REMARKS
BLOOMINGTON    LGT SNOW  27  23  85 NW6       30.39S FOG     WCI  20
SEYMOUR +      CLOUDY    30  21  69 W14       30.40  WCI  20

$$



USA.gov is the U.S. government's official web portal to all federal, state and local government web resources and services.